User: anonymous   Login
Location: Arlington
(40.6323°N, 74.1651°W)
Time: 20:09:01
(UTC+00:00)
Language:

Cosmos 2322 Rocket - Orbit

View from above orbital plane
View from above orbital plane
View from above satellite
View from above satellite

Ground track
Ground track

The orbit data is extracted from the following two-line orbital elements,

1 23705U 95058B   20023.47993105 -.00000181 +00000-0 -68603-4 0  9998
2 23705 071.0210 195.2239 0014899 286.6408 073.3078 14.15135450251326
Epoch (UTC): 23 January 2020 11:31:06
Eccentricity: 0.0014899
inclination: 71.0210°
perigee height: 831 km
apogee height: 852 km
right ascension of ascending node: 195.2239°
argument of perigee: 286.6408°
revolutions per day: 14.15135450
mean anomaly at epoch: 73.3078°
orbit number at epoch: 25132

The dashed part of the orbit path shows where the satellite is in the earth's shadow,  

DLR